STARLINK-1770, 46383

Orbit data source: Space-Track

STARLINK-1770, 46383 is a payload satellite owned by SpaceX/Seattle (US) in LEO that was launched on Thu, 03 Sep 2020 UTC via an FALCON 9 launch vehicle from the Air Force Eastern Test Range (AFETR). Payload-class satellites include a variety of spacecraft equipped with specific instruments for various scientific and technological missions. These include communications satellites like Starlink; space stations such as the ISS; scientific satellites like the Hubble; Earth observation satellites from companies like Planet Labs, Umbra, and HawkEye 360; GPS; miniature CubeSats for education and research; and military/defense satellites.

Loading next visibility...
Identifier
46383, 2020-062BL
Orbit
LEO
Last TLE update
9 hours ago
Origin
Manufacturer
SpaceX/Seattle
Mission
Operational Commercial Communications
Bus & Motor
STARLINK, Unknown motor
Mass
260 kg wet, ~248 kg dry
Launch date (UTC)
2020-09-03 (5 years ago)
Launch vehicle
FALCON 9
Launch site
Air Force Eastern Test Range (AFETR)
Object type
Payload
Rocket body
Debris
Shape & HBR
Box + 1 Pan, 8.86 m
Radar Cross Section
13.562 m², Large (>1 m²)

Expand to show TLE details & history

TLE from 9 hours ago
0 STARLINK-1770
1 46383U 20062BL  25181.91668981  .00062216  00000-0  32639-2 0  9991
2 46383  53.0550  66.7721 0002700  76.3251  99.9738 15.15180557266531
Epoch: 2025-06-30T22:00Z
TLE epoch observation values (Epoch: 2025-06-30T22:00:01.999Z)
Latitude
2.87123°
Longitude
-4.6056°
Altitude
521.309 km
Speed
7.604 km/s
True Right ascension
16h 18m 29s
True Declination
2° 51' 13"
Sunlit
Object was in full shadow at epoch
Visualization orbit readout
Latitude
-3.14365°
Longitude
173.53866°
Altitude
521.354 km
Speed
7.604 km/s
Apparent Right ascension
05h 04m 27s
Apparent Declination
-21° 25' 07"
Sunlit
Object is in daylight
Visualization observer readout
Local Sidereal Time
18:20:15
Azimuth
46.697° ENE
Elevation
-65.457°
Doppler factor
1
Orbital elements
Apogee altitude
522.565 km
Perigee altitude
518.839 km
Semi-major axis
6,898.839 km
Eccentricity
0.00027
Inclination
53.055°
RAAN
66.7721°
Arg. of periapsis
76.3251°
True anomaly
Unknown
Mean anomaly
99.9738°
Eccentric anomaly
Unknown
Mean motion
3.78773 °/min
Orbital period
95.04 mins
BSTAR
0.0032639
Loading maneuver chart data...
Loading SW <> Apogee altitude chart data...
Loading historical data...
Loading historical data...
Loading historical data...
Loading historical data...
Loading historical data...
Loading historical data...
Loading historical data...

STARLINK-1770 Visibility forecast

Observer location: undefined°, undefined°

Span
Click to sort rows by Start time (UTC) header in descending order
Start Az.
Max El. time (UTC)
Max El. Az.
Max El.
End time (UTC)
End Az.
5 mins2025-07-01 17:57:25.369Z175.236° S2025-07-01 18:00:25.369Z118.591° SE20.118°2025-07-01 18:02:25.369Z83.992° E
6 mins2025-07-01 19:36:25.369Z259° W2025-07-01 19:38:25.369Z312.938° NW36.752°2025-07-01 19:42:25.369Z41.35° NE
5 mins2025-07-02 00:36:25.369Z340.344° N2025-07-02 00:38:25.369Z23.195° NE24.667°2025-07-02 00:41:25.369Z82.719° E
6 mins2025-07-02 02:15:25.369Z290.996° WNW2025-07-02 02:17:25.369Z237.646° WSW36.955°2025-07-02 02:21:25.369Z149.793° SSE
|